Other Public Products
Issued by NWS Grand Forks, ND

Home | Current Version | Previous Version | Text Only | Print | Product List | Glossary Off
Versions: 1 2 3 4 5 6 7 8 9 10 11 12 13 14 15 16 17 18 19 20 21 22 23 24 25 26 27 28 29 30 31 32 33 34 35 36 37 38 39 40 41 42 43 44 45 46 47 48 49 50

000
FPUS83 KFGF 240510
OPUFGF
PRAIRIE TO PINES WEATHER ROUNDUP
NATIONAL WEATHER SERVICE EASTERN NORTH DAKOTA/GRAND FORKS ND
1100 PM CST THU NOV 23 2017

 **SATELLITE DATA USED TO AUGMENT SKY COVER AT AUTOMATED STATIONS**
 *****  WEATHER ACROSS EASTERN NORTH DAKOTA  *****

CITY           SKY/WX    TMP DP  RH WIND       PRES   REMARKS
GRAND FORKS    FAIR      42  36  79 SW12      29.29F
GRND FORKS AFB FAIR      43  35  73 SW12      29.29F
GRND FORKS NWS   N/A     41 N/A N/A SW10        N/A
BUXTON         NOT AVBL
DEVILS LAKE    FAIR      45  35  68 SW14      29.30F
FARGO          FAIR      42  36  79 S13       29.38F
WAHPETON ARPT  NOT AVBL
$$

 *****  WEATHER ACROSS CENTRAL AND WESTERN NORTH DAKOTA  *****

CITY           SKY/WX    TMP DP  RH WIND       PRES   REMARKS
JAMESTOWN      FAIR      52  37  56 SW14      29.38F
BISMARCK       FAIR      55  36  48 SW10      29.42F
MINOT          FAIR      55  37  50 SW13      29.30F
MINOT AFB      FAIR      50  37  61 W13       29.29S
GARRISON         N/A     48  38  68 W14       29.35F
WILLISTON      FAIR      50  35  56 SW9       29.35F
DICKINSON      FAIR      54  35  48 SW17      29.43F
HETTINGER      FAIR      46  34  62 W8        29.53F
$$

 *****  OTHER OBSERVATIONS NORTHEAST NORTH DAKOTA  *****

CITY           SKY/WX    TMP DP  RH WIND       PRES   REMARKS
WALHALLA       FAIR      50  39  66 SW16G25   29.18F
LANGDON        FAIR      39  39 100 SW17      29.25F
CAVALIER       FAIR      48  36  61 SW6       29.21F
GRAFTON        FAIR      41  36  81 S12       29.27F
CANDO          FAIR      39  37  93 W9        29.30S
FORT TOTTEN      N/A     52  37  56 SW9       29.95S
ROLLA          FAIR      52  39  62 W17G25    29.27S
RUGBY          FAIR      48  37  66 W12       29.31R
 ***** THE ABOVE OBSERVATIONS ARE NON NWS ARE NOT QUALITY
        CONTROLLED AND MAY MIS-REPORT RAIN FOR SNOW...
$$

 *****  OTHER OBSERVATIONS SOUTHEAST NORTH DAKOTA *****

CITY           SKY/WX    TMP DP  RH WIND       PRES   REMARKS
COOPERSTOWN    FAIR      46  37  71 SW14      29.35F
VALLEY CITY    FAIR      52  39  62 SW16G23   29.39F
OAKES            N/A     41  37  87 S14       29.45F
GWINNER          N/A     45  37  76 SW10      29.44F
SHEYENNE NWR     N/A     48  39  72 SW10      29.95S
BUFFALO        NOT AVBL
WYNDMERE       NOT AVBL
 ***** THE ABOVE OBSERVATIONS ARE NON NWS ARE NOT QUALITY
       CONTROLLED AND MAY MIS-REPORT RAIN FOR SNOW...
$$

  *****  WEATHER ACROSS NORTHERN MINNESOTA  *****

CITY           SKY/WX    TMP DP  RH WIND       PRES   REMARKS
FLAG ISLAND    FAIR      30  27  86 S14       29.19F WCI  20
WARROAD        FAIR      41  36  81 SW14      29.23F
ROSEAU         FAIR      43  36  75 SW15      29.22F
HALLOCK        FAIR      37  34  87 S14       29.23F
THF RVR FALLS  FAIR      41  35  79 SW12      29.31F
HALSTAD        NOT AVBL
FOSSTON        FAIR      39  34  81 S15       29.35F
BAUDETTE       FAIR      38  33  82 SW12G20   29.25F
WASKISH        FAIR      45  36  70 S10G20    29.30F
CROOKSTON      FAIR      43  36  75 SW16      29.32F
$$
  *****  WEATHER ACROSS CENTRAL AND WEST MINNESOTA  *****

CITY           SKY/WX    TMP DP  RH WIND       PRES   REMARKS
BEMIDJI        FAIR      39  32  77 S8        29.36F
PARK RAPIDS    FAIR      32  28  85 S6        29.41F
WADENA         FAIR      41  34  75 S9        29.43F
DETROIT LAKES  FAIR      45  36  70 SW13      29.41F
MOORHEAD       FAIR      43  36  75 S12       29.40F
FERGUS FALLS   FAIR      39  34  81 S9        29.46F
ELBOW LAKE     FAIR      40  35  81 S13       29.46F
MORRIS MN      FAIR      43  36  75 S7        29.47F
STAPLES        FAIR      39  32  75 S9        29.45F
WHEATON        FAIR      54  37  54 SW13G18   29.46F
$$
  *****  WEATHER ELSEWHERE ACROSS MINNESOTA  *****

CITY           SKY/WX    TMP DP  RH WIND       PRES   REMARKS
DULUTH         FAIR      37  28  70 SW18      29.45F
INTRNTL FALLS  FAIR      38  29  70 VRB7      29.29F
ELY            MOCLDY    36  27  69 SW12G22   29.40F
CLOQUET        MOCLDY    37  27  65 S14       29.46F
BRAINERD       FAIR      39  30  70 S12       29.46F
HIBBING        FAIR      33  25  72 S6        29.42F
ALEXANDRIA     FAIR      45  36  70 S13       29.48F
SAINT CLOUD    FAIR      42  33  70 S7        29.53F
MINNEAPOLIS    MOCLDY    48  34  58 S10G18    29.59F
$$

  *****  WEATHER ACROSS SOUTH DAKOTA  *****

CITY           SKY/WX    TMP DP  RH WIND       PRES   REMARKS
SIOUX FALLS    FAIR      53  41  63 SW10      29.60F
BROOKINGS      FAIR      46  38  73 S12       29.57F
WATERTOWN      FAIR      39  36  89 S9        29.53F
HURON          FAIR      48  39  71 S9        29.52F
SISSETON         N/A     53  40  61 SW17      29.45F
ABERDEEN       FAIR      35  33  92 S7        29.48F
MITCHELL       FAIR      54  41  61 SW9       29.57F
PIERRE         FAIR      54  39  57 W12       29.54F
MOBRIDGE       FAIR      54  37  52 CALM      29.47F
RAPID CITY     FAIR      52  32  46 W8        29.63F
$$

  *****  SOME WEATHER IN NEARBY STATES *****

CITY           SKY/WX    TMP DP  RH WIND       PRES   REMARKS
GLASGOW MT     LGT RAIN  55  45  68 W24G40    29.39S
GREAT FALLS MT MOCLDY    51  38  60 SW22G32   29.51S
CHEYENNE WY    FAIR      55  29  36 VRB6      29.94F
SCOTTSBLUFF NE FAIR      50  35  56 CALM      29.80F
OMAHA NE       MOCLDY    49  38  65 S10       29.75F
DES MOINES IA  CLOUDY    49  35  58 S12       29.79F
DAVENPORT IA   FAIR      33  26  75 S9        29.89F
CHICAGO IL     FAIR      36  26  67 SW3       29.89F
EAU CLAIRE WI  FAIR      33  23  66 SE3       29.65F
LA CROSSE WI   FAIR      39  27  62 S12       29.74F
$$

  *****  SOME NATIONAL WEATHER *****

CITY           SKY/WX    TMP DP  RH WIND       PRES   REMARKS
LA GUARDIA NY  FAIR      39  21  48 NW9       30.04S
RALEIGH NC     FAIR      30  28  92 CALM      30.07S
ATLANTA GA     FAIR      47  39  74 E6        30.02S
NEW ORLEANS LA FAIR      54  37  52 N5        30.06S
OKLAHOMA CITY  FAIR      47  34  60 SE10      29.97F
ALBUQUERQUE NM FAIR      49  31  49 E3        30.19F
SALT LAKE CITY MOCLDY    51  45  79 N7        30.05R
LOS ANGELES CA FAIR      68  58  70 CALM      29.93S
BOISE ID       CLOUDY    58  45  62 CALM      29.92R
SEATTLE WA     FAIR      48  45  89 S13       29.94S
$$

*** WEATHER ACROSS MANITOBA...SASKATCHEWAN AND ONTARIO ***
                ***ONTARIO***

CITY           SKY/WX    TMP DP  RH WIND       PRES   REMARKS
GERALDTON      SNOWSHWR  14  10  85 SE7       29.54F DRFTSNOWWCI   4
THUNDER BAY    CLOUDY    34  30  86 VRB2      29.50F
SIOUX LOOKOUT  FRZ RAIN  28  27  93 S9G18     29.24F WCI  20
TORONTO        CLOUDY    37  25  60 W13       29.93R
BIG TROUT LK   LGT SNOW   7   3  85 SE12G17   29.41  WCI  -9
PICKLE LAKE    NOT AVBL
DRYDEN         CLOUDY    32  28  86 S15G23    29.21F WCI  22
KENORA         CLOUDY    32  28  86 S13       29.17F WCI  22
$$
                *** MANITOBA***

CITY           SKY/WX    TMP DP  RH WIND       PRES   REMARKS
BRANDON        CLEAR     39  36  87 W16       29.22S
DAUPHIN        MOCLDY    37  32  81 W22G29    29.18R
ISLAND LAKE    FRZ RAIN  10   7  85 E13       29.22F WCI  -5
PILOT MOUND      N/A     46  37  71 W7          N/A
THE PAS        FLURRIES  16  12  86 W3        29.16R
THOMPSON       FLURRIES   3  -2  78 E5        29.23F WCI  -6
WINNIPEG       MOCLDY    39  34  81 SW12      29.16S
LYNN LAKE      FLURRIES   1  -2  85 E9        29.13F WCI -14
CHURCHILL      PTCLDY   -11 -17  77 W6        29.41F WCI -25
$$
                ***SASKATCHEWAN***

CITY           SKY/WX    TMP DP  RH WIND       PRES   REMARKS
ESTEVAN        CLEAR     37  34  87 SW8       29.32R
KINDERSLEY     CLOUDY    36  32  87 W9        29.35R
LLOYDMINSTER   CLEAR     34  30  86 W16       29.28R WCI  23
PRINCE ALBERT  NOT AVBL
REGINA         CLOUDY    36  34  93 W6        29.30F
YORKTON        CLOUDY    34  32  93 W3        29.25R
N. BATTLEFORD  CLEAR     36  30  80 W9        29.29S



USA.gov is the U.S. government's official web portal to all federal, state and local government web resources and services.